Weather History for Athens, OH

Change the Weather History Date:

Saturday, January 14, 2012

  Actual Average (KPKB) Record (KPKB)
Temperature  
Mean Temperature 23 °F 31 °F  
Max Temperature 27 °F 40 °F 74 °F (1995)
Min Temperature 19 °F 23 °F -4 °F (1929)
Degree Days  
Heating Degree Days 42 34  
Month to date heating degree days 469  
Since 1 July heating degree days 2379  
Cooling Degree Days 0 0  
Month to date cooling degree days 0  
Year to date cooling degree days 0  
Moisture  
Dew Point 15 °F    
Average Humidity 72    
Maximum Humidity 81    
Minimum Humidity 58    
Precipitation  
Precipitation 0.00 in 0.09 in 0.65 in (2007)
Month to date precipitation 1.31  
Year to date precipitation 1.31  
Sea Level Pressure  
Sea Level Pressure 30.11 in    
Wind  
Wind Speed 7 mph (WSW)    
Max Wind Speed 13 mph    
Max Gust Speed 18 mph    
Visibility 10 miles    
Events Snow    
T = Trace of Precipitation, MM = Missing Value Source: NWS Daily Summary

Daily Weather History Graph

Daily Weather History Graph

Search for Another Location

Airport:

Trip Planner

Search our weather history database for the weather conditions in past years. The results will help you decide how hot, cold, wet, or windy it might be!

Date:

Astronomy

Jan. 14, 2012 Rise Set
Actual Time 7:47 AM EST 5:28 PM EST
Civil Twilight 7:17 AM EST 5:58 PM EST
Nautical Twilight 6:44 AM EST 6:31 PM EST
Astronomical Twilight 6:12 AM EST 7:03 PM EST
Moon 11:45 PM EST (1/14) 10:34 AM EST (1/14)
Length of Visible Light 10h 40m
Length of Day
9h 41m
Waning Gibbous, 69% of the Moon is Illuminated
Jan 14
Waning Gibbous
Jan 16
Last Quarter
Jan 23
New
Jan 30
First Quarter
Feb 7
Full

Hourly Weather History & Observations

Time (EST) Temp. Windchill Dew Point Humidity Pressure Visibility Wind Dir Wind Speed Gust Speed Precip Events Conditions
12:15 AM 21.0 °F 11.4 °F 14.9 °F 77% 30.07 in 10.0 mi WSW 8.1 mph - N/A   Overcast
12:35 AM 21.0 °F 10.6 °F 14.9 °F 77% 30.07 in 10.0 mi WSW 9.2 mph - N/A Snow Light Snow
12:55 AM 21.0 °F 12.4 °F 14.9 °F 77% 30.08 in 10.0 mi SW 6.9 mph - N/A Snow Light Snow
1:15 AM 20.8 °F 10.4 °F 15.1 °F 78% 30.08 in 10.0 mi WSW 9.2 mph - N/A Snow Light Snow
1:35 AM 20.8 °F 10.4 °F 15.3 °F 79% 30.08 in 10.0 mi WSW 9.2 mph - N/A Snow Light Snow
1:55 AM 20.8 °F 12.1 °F 15.3 °F 79% 30.08 in 10.0 mi WSW 6.9 mph - N/A Snow Light Snow
2:15 AM 20.7 °F 11.9 °F 15.3 °F 80% 30.09 in 10.0 mi WSW 6.9 mph - N/A Snow Light Snow
2:35 AM 20.7 °F 11.9 °F 15.6 °F 81% 30.10 in 10.0 mi WSW 6.9 mph - N/A Snow Light Snow
2:55 AM 20.7 °F 11.9 °F 15.8 °F 81% 30.10 in 10.0 mi WSW 6.9 mph - N/A Snow Light Snow
3:15 AM 20.7 °F 11.9 °F 15.8 °F 81% 30.09 in 10.0 mi WSW 6.9 mph - N/A Snow Light Snow
3:35 AM 20.7 °F 11.0 °F 15.6 °F 81% 30.10 in 10.0 mi WSW 8.1 mph - N/A   Overcast
3:55 AM 20.7 °F 11.0 °F 14.9 °F 78% 30.11 in 10.0 mi WSW 8.1 mph - N/A   Mostly Cloudy
4:15 AM 20.7 °F 11.9 °F 14.7 °F 78% 30.11 in 10.0 mi WSW 6.9 mph - N/A   Overcast
4:35 AM 20.3 °F 13.8 °F 14.9 °F 80% 30.11 in 10.0 mi WSW 4.6 mph - N/A   Overcast
4:55 AM 20.3 °F 10.6 °F 15.3 °F 81% 30.10 in 10.0 mi WSW 8.1 mph - N/A   Overcast
5:15 AM 20.3 °F 12.5 °F 14.5 °F 78% 30.10 in 10.0 mi WSW 5.8 mph - N/A Snow Light Snow
5:35 AM 20.1 °F 12.3 °F 14.0 °F 77% 30.10 in 10.0 mi SW 5.8 mph - N/A   Mostly Cloudy
5:55 AM 20.1 °F 11.3 °F 14.4 °F 78% 30.11 in 10.0 mi WSW 6.9 mph - N/A   Overcast
6:15 AM 19.9 °F 12.1 °F 14.0 °F 78% 30.12 in 10.0 mi SW 5.8 mph - N/A   Overcast
6:35 AM 20.1 °F 13.6 °F 14.4 °F 78% 30.12 in 10.0 mi SW 4.6 mph - N/A Snow Light Snow
6:55 AM 20.1 °F 13.6 °F 14.5 °F 79% 30.12 in 10.0 mi SW 4.6 mph - N/A Snow Light Snow
7:15 AM 20.3 °F - 14.9 °F 80% 30.13 in 10.0 mi Calm Calm - N/A Snow Light Snow
7:35 AM 20.3 °F 15.4 °F 14.9 °F 80% 30.13 in 10.0 mi SW 3.5 mph - N/A Snow Light Snow
7:55 AM 20.3 °F 13.8 °F 14.9 °F 80% 30.14 in 10.0 mi SW 4.6 mph - N/A Snow Light Snow
8:15 AM 20.3 °F 12.5 °F 15.1 °F 80% 30.15 in 10.0 mi SW 5.8 mph - N/A Snow Light Snow
8:55 AM 20.7 °F 13.0 °F 15.6 °F 81% 30.15 in 4.0 mi WSW 5.8 mph - N/A Snow Light Snow
9:15 AM 21.0 °F 13.4 °F 15.8 °F 80% 30.16 in 3.0 mi WSW 5.8 mph - N/A Snow Light Snow
9:35 AM 21.2 °F 13.6 °F 15.8 °F 80% 30.15 in 2.5 mi WSW 5.8 mph - N/A Snow Light Snow
9:55 AM 21.6 °F 15.3 °F 15.8 °F 78% 30.16 in 10.0 mi WSW 4.6 mph - N/A Snow Light Snow
10:15 AM 21.9 °F 14.5 °F 14.7 °F 74% 30.16 in 10.0 mi SW 5.8 mph - N/A Snow Light Snow
10:35 AM 22.6 °F 13.4 °F 14.9 °F 72% 30.16 in 10.0 mi West 8.1 mph - N/A Snow Light Snow
10:55 AM 22.6 °F 12.6 °F 14.5 °F 71% 30.15 in 10.0 mi West 9.2 mph - N/A Snow Light Snow
11:15 AM 22.6 °F 12.6 °F 14.7 °F 72% 30.15 in 10.0 mi WSW 9.2 mph - N/A Snow Light Snow
11:35 AM 23.4 °F 12.2 °F 14.0 °F 67% 30.14 in 10.0 mi WSW 11.5 mph - N/A   Scattered Clouds
11:55 AM 23.2 °F 11.4 °F 13.8 °F 67% 30.14 in 10.0 mi West 12.7 mph 17.3 mph N/A   Scattered Clouds
12:15 PM 24.3 °F 14.6 °F 14.2 °F 65% 30.13 in 10.0 mi WSW 9.2 mph - N/A   Mostly Cloudy
12:35 PM 24.3 °F 15.4 °F 13.8 °F 64% 30.12 in 10.0 mi WSW 8.1 mph - N/A   Mostly Cloudy
12:55 PM 26.1 °F 16.8 °F 14.7 °F 62% 30.11 in 10.0 mi West 9.2 mph 18.4 mph N/A   Overcast
1:15 PM 24.6 °F 14.4 °F 14.4 °F 65% 30.11 in 10.0 mi West 10.4 mph - N/A   Scattered Clouds
1:35 PM 26.6 °F 19.1 °F 15.3 °F 62% 30.10 in 10.0 mi West 6.9 mph - N/A   Clear
1:55 PM 27.1 °F 20.7 °F 15.4 °F 61% 30.09 in 10.0 mi WSW 5.8 mph - N/A   Scattered Clouds
2:15 PM 26.6 °F 20.0 °F 14.9 °F 61% 30.09 in 10.0 mi West 5.8 mph - N/A   Clear
2:35 PM 26.6 °F 21.2 °F 14.5 °F 60% 30.09 in 10.0 mi West 4.6 mph - N/A   Scattered Clouds
2:55 PM 27.3 °F 19.9 °F 14.9 °F 60% 30.09 in 10.0 mi West 6.9 mph - N/A   Overcast
3:15 PM 27.1 °F 21.8 °F 15.1 °F 60% 30.09 in 10.0 mi West 4.6 mph - N/A   Mostly Cloudy
3:35 PM 27.5 °F 20.2 °F 14.4 °F 58% 30.09 in 10.0 mi West 6.9 mph - N/A   Scattered Clouds
3:55 PM 27.1 °F - 14.5 °F 59% 30.09 in 10.0 mi Calm Calm - N/A   Clear
4:15 PM 27.0 °F 23.0 °F 14.2 °F 59% 30.10 in 10.0 mi NNW 3.5 mph - N/A   Clear
4:35 PM 27.0 °F - 14.4 °F 59% 30.10 in 10.0 mi Calm Calm - N/A   Clear
4:55 PM 26.6 °F - 14.5 °F 60% 30.10 in 10.0 mi Calm Calm - N/A   Clear
5:15 PM 26.2 °F - 14.7 °F 62% 30.10 in 10.0 mi Calm Calm - N/A   Clear
5:35 PM 25.9 °F - 15.8 °F 66% 30.11 in 10.0 mi Calm Calm - N/A   Clear
5:55 PM 25.5 °F - 15.6 °F 66% 30.11 in 10.0 mi Calm Calm - N/A   Clear
6:15 PM 25.2 °F - 15.8 °F 68% 30.12 in 10.0 mi Calm Calm - N/A   Clear
6:35 PM 24.6 °F - 15.8 °F 69% 30.13 in 10.0 mi Calm Calm - N/A   Clear
6:55 PM 23.9 °F - 15.6 °F 71% 30.13 in 10.0 mi Calm Calm - N/A   Clear
7:15 PM 23.9 °F 19.5 °F 14.9 °F 69% 30.13 in 10.0 mi North 3.5 mph - N/A   Scattered Clouds
7:35 PM 23.7 °F 19.3 °F 15.4 °F 71% 30.14 in 10.0 mi North 3.5 mph - N/A   Scattered Clouds
7:55 PM 23.4 °F 18.9 °F 15.1 °F 71% 30.14 in 10.0 mi North 3.5 mph - N/A   Scattered Clouds
8:15 PM 22.8 °F 18.2 °F 14.9 °F 72% 30.15 in 10.0 mi NNE 3.5 mph - N/A   Clear
8:35 PM 22.6 °F 18.0 °F 14.7 °F 72% 30.16 in 10.0 mi North 3.5 mph - N/A   Clear
8:55 PM 22.3 °F 14.9 °F 14.4 °F 72% 30.17 in 10.0 mi North 5.8 mph - N/A   Clear
9:15 PM 22.1 °F 17.4 °F 14.5 °F 73% 30.17 in 10.0 mi North 3.5 mph - N/A   Clear
9:55 PM 21.2 °F - 14.4 °F 75% 30.18 in 10.0 mi Calm Calm - N/A   Clear
10:15 PM 21.2 °F - 14.5 °F 75% 30.18 in 10.0 mi Calm Calm - N/A   Clear
10:35 PM 21.2 °F - 14.9 °F 77% 30.19 in 10.0 mi Calm Calm - N/A   Clear
10:55 PM 21.2 °F - 15.4 °F 78% 30.19 in 10.0 mi Calm Calm - N/A   Clear
11:15 PM 21.2 °F 16.4 °F 15.3 °F 78% 30.19 in 10.0 mi NNE 3.5 mph - N/A   Clear
11:35 PM 21.0 °F 13.4 °F 15.6 °F 80% 30.19 in 10.0 mi NE 5.8 mph - N/A   Clear
11:55 PM 20.7 °F 15.8 °F 15.4 °F 80% 30.19 in 10.0 mi NE 3.5 mph - N/A   Scattered Clouds